This is the latest recevied weather packets stored in our database for station/object OK1FET-4. If no packets are shown the sender has not sent any weather packets the latest 10 day(s).
| Time | Temp. | Humidity | Pressure | Rain* | Wind** | Luminosity | Snow |
|---|---|---|---|---|---|---|---|
| 1777986608 | 28.89° C | 58% | 1006.3 hPa | - | - | - | - |
| 1777986306 | 29.44° C | 69% | 1006.4 hPa | - | - | - | - |
| 1777986305 | 29.44° C | 69% | 1006.4 hPa | - | - | - | - |
| 1777986003 | 29.44° C | 58% | 1006.5 hPa | - | - | - | - |
| 1777986003 | 29.44° C | 58% | 1006.5 hPa | - | - | - | - |
| 1777986003 | 29.44° C | 58% | 1006.5 hPa | - | - | - | - |
| 1777985701 | 28.89° C | 71% | 1006.6 hPa | - | - | - | - |
| 1777985701 | 28.89° C | 71% | 1006.6 hPa | - | - | - | - |
| 1777985399 | 28.33° C | 64% | 1006.6 hPa | - | - | - | - |
| 1777985399 | 28.33° C | 64% | 1006.6 hPa | - | - | - | - |
| 1777985399 | 28.33° C | 64% | 1006.6 hPa | - | - | - | - |
| 1777985097 | 28.33° C | 71% | 1006.7 hPa | - | - | - | - |
| 1777985097 | 28.33° C | 71% | 1006.7 hPa | - | - | - | - |
| 1777985097 | 28.33° C | 71% | 1006.7 hPa | - | - | - | - |
| 1777984795 | 28.33° C | 76% | 1006.8 hPa | - | - | - | - |
| 1777984795 | 28.33° C | 76% | 1006.8 hPa | - | - | - | - |
| 1777984493 | 27.78° C | 77% | 1006.8 hPa | - | - | - | - |
| 1777984492 | 27.78° C | 77% | 1006.8 hPa | - | - | - | - |
| 1777984191 | 27.78° C | 77% | 1006.8 hPa | - | - | - | - |
| 1777984191 | 27.78° C | 77% | 1006.8 hPa | - | - | - | - |
| 1777984191 | 27.78° C | 77% | 1006.8 hPa | - | - | - | - |
| 1777983888 | 27.22° C | 67% | 1006.9 hPa | - | - | - | - |
| 1777983888 | 27.22° C | 67% | 1006.9 hPa | - | - | - | - |
| 1777983888 | 27.22° C | 67% | 1006.9 hPa | - | - | - | - |
| 1777983586 | 27.78° C | 76% | 1006.9 hPa | - | - | - | - |
* Rain since midnight (hover to see other rain measurements)
** Current wind speed in m/s (hover to see current wind gust speed)